When you browse on this site, cookies collect data to enhance your experience and personalize the content and advertising you see.
Visit our Privacy Policy to learn more. By continuing to use the site, you agree to this use of cookies and data.
  • In Hungary
  • List of Countries
  • For 7 days
  • Water Temperature
  • Weather Map
  • News
  • Weather Widgets
  • user-avatar
    Login

    Hourly Weather Capotillo

    Today, 17 November, Sunday

    Time Temperature Precipitation Wind Pressure Humidity
    00:00 +25°C° 0 mm 1 mps 755 mmHg 85%
    01:00 +25°C° 0 mm 1 mps 755 mmHg 81%
    02:00 +25°C° 0 mm 1 mps 754 mmHg 82%
    03:00 +25°C° 0 mm 1 mps 754 mmHg 83%
    04:00 +25°C° 0 mm 1 mps 754 mmHg 83%
    05:00 +25°C° 0 mm 1 mps 755 mmHg 83%
    06:00 +25°C° 0 mm 1 mps 755 mmHg 83%
    07:00 +25°C° 0 mm 1 mps 756 mmHg 82%
    08:00 +27°C° 0 mm 1 mps 756 mmHg 76%
    09:00 +29°C° 0 mm 1 mps 756 mmHg 71%
    10:00 +31°C° 0 mm 1 mps 756 mmHg 65%
    11:00 +31°C° 0 mm 1 mps 755 mmHg 64%
    12:00 +31°C° 0 mm 2 mps 755 mmHg 63%
    13:00 +32°C° 0 mm 2 mps 754 mmHg 62%
    14:00 +31°C° 0 mm 2 mps 754 mmHg 67%
    15:00 +30°C° 0 mm 2 mps 753 mmHg 71%
    16:00 +29°C° 0 mm 2 mps 753 mmHg 75%
    17:00 +28°C° 0 mm 2 mps 754 mmHg 79%
    18:00 +27°C° 0 mm 1 mps 754 mmHg 82%
    19:00 +26°C° 0 mm 1 mps 755 mmHg 85%
    20:00 +26°C° 0 mm 1 mps 755 mmHg 86%
    21:00 +26°C° 0 mm 1 mps 755 mmHg 87%
    22:00 +25°C° 0 mm 1 mps 755 mmHg 88%
    23:00 +25°C° 0 mm 1 mps 755 mmHg 88%

    Tomorrow, 18 November, Monday

    Time Temperature Precipitation Wind Pressure Humidity
    00:00 +25°C° 0 mm 1 mps 755 mmHg 88%
    01:00 +25°C° 0 mm 1 mps 755 mmHg 89%
    02:00 +25°C° 0 mm 1 mps 755 mmHg 90%
    03:00 +24°C° 0 mm 1 mps 754 mmHg 91%
    04:00 +24°C° 0 mm 1 mps 754 mmHg 92%
    05:00 +24°C° 0 mm 1 mps 755 mmHg 90%
    06:00 +25°C° 0 mm 1 mps 755 mmHg 88%
    07:00 +25°C° 0 mm 1 mps 756 mmHg 86%
    08:00 +27°C° 0 mm 1 mps 756 mmHg 79%
    09:00 +29°C° 0 mm 1 mps 756 mmHg 72%
    10:00 +31°C° 0 mm 1 mps 756 mmHg 65%
    11:00 +31°C° 0 mm 1 mps 756 mmHg 64%
    12:00 +31°C° 0 mm 2 mps 755 mmHg 64%
    13:00 +31°C° 0 mm 2 mps 755 mmHg 63%
    14:00 +31°C° 0 mm 2 mps 755 mmHg 67%
    15:00 +30°C° 0 mm 2 mps 754 mmHg 71%
    16:00 +29°C° 0 mm 2 mps 754 mmHg 74%
    17:00 +28°C° 0 mm 1 mps 755 mmHg 77%
    18:00 +27°C° 0 mm 1 mps 755 mmHg 80%
    19:00 +24°C° 0 mm 0 mps 756 mmHg 83%
    20:00 +23°C° 0 mm 0 mps 756 mmHg 85%
    21:00 +25°C° 0 mm 1 mps 756 mmHg 87%
    22:00 +25°C° 0 mm 1 mps 756 mmHg 88%
    23:00 +24°C° 0 mm 1 mps 756 mmHg 89%

    Day after tomorrow, 19 November, Tuesday

    Time Temperature Precipitation Wind Pressure Humidity
    00:00 +24°C° 0 mm 1 mps 756 mmHg 90%
    01:00 +24°C° 0 mm 1 mps 756 mmHg 90%
    02:00 +24°C° 0 mm 1 mps 756 mmHg 91%
    03:00 +24°C° 0 mm 1 mps 756 mmHg 91%
    04:00 +24°C° 0 mm 1 mps 756 mmHg 91%
    05:00 +24°C° 0 mm 1 mps 756 mmHg 90%
    06:00 +25°C° 0 mm 1 mps 757 mmHg 88%
    07:00 +25°C° 0 mm 1 mps 757 mmHg 87%
    08:00 +27°C° 0 mm 1 mps 757 mmHg 81%
    09:00 +29°C° 0 mm 1 mps 757 mmHg 75%
    10:00 +31°C° 0 mm 1 mps 758 mmHg 69%
    11:00 +31°C° 0 mm 2 mps 757 mmHg 68%
    12:00 +31°C° 0 mm 2 mps 757 mmHg 67%
    13:00 +31°C° 0 mm 3 mps 756 mmHg 66%
    14:00 +31°C° 0 mm 2 mps 756 mmHg 69%
    15:00 +30°C° 0 mm 2 mps 756 mmHg 72%
    16:00 +30°C° 0 mm 2 mps 756 mmHg 75%
    17:00 +29°C° 0 mm 2 mps 756 mmHg 79%
    18:00 +28°C° 0 mm 1 mps 757 mmHg 83%
    19:00 +26°C° 0 mm 1 mps 757 mmHg 87%
    20:00 +26°C° 0 mm 1 mps 757 mmHg 88%
    21:00 +26°C° 0 mm 1 mps 757 mmHg 89%
    22:00 +26°C° 0 mm 1 mps 758 mmHg 90%
    23:00 +25°C° 0.1 mm 1 mps 757 mmHg 91%

    20 November, Wednesday

    Time Temperature Precipitation Wind Pressure Humidity
    00:00 +25°C° 0.1 mm 1 mps 757 mmHg 91%
    01:00 +25°C° 0.1 mm 1 mps 757 mmHg 92%
    02:00 +25°C° 0.2 mm 1 mps 757 mmHg 92%
    03:00 +25°C° 0.2 mm 1 mps 757 mmHg 92%
    04:00 +25°C° 0.2 mm 1 mps 757 mmHg 93%
    05:00 +25°C° 0.2 mm 1 mps 757 mmHg 91%
    06:00 +26°C° 0.2 mm 1 mps 758 mmHg 89%
    07:00 +26°C° 0.2 mm 1 mps 758 mmHg 88%
    08:00 +28°C° 0 mm 1 mps 758 mmHg 80%
    09:00 +30°C° 0 mm 1 mps 759 mmHg 73%
    10:00 +30°C° 0 mm 0 mps 759 mmHg 65%
    11:00 +31°C° 0.3 mm 1 mps 758 mmHg 67%
    12:00 +31°C° 0.3 mm 2 mps 758 mmHg 69%
    13:00 +31°C° 0.3 mm 2 mps 757 mmHg 71%
    14:00 +30°C° 0.6 mm 2 mps 757 mmHg 74%
    15:00 +30°C° 0.6 mm 2 mps 757 mmHg 77%
    16:00 +29°C° 0.6 mm 1 mps 757 mmHg 80%
    17:00 +28°C° 0.2 mm 1 mps 757 mmHg 82%
    18:00 +27°C° 0.2 mm 1 mps 757 mmHg 84%
    19:00 +25°C° 0.2 mm 0 mps 758 mmHg 85%
    20:00 +26°C° 0.2 mm 1 mps 758 mmHg 87%
    21:00 +26°C° 0.2 mm 1 mps 758 mmHg 89%
    22:00 +25°C° 0.2 mm 2 mps 758 mmHg 91%
    23:00 +25°C° 0.2 mm 2 mps 758 mmHg 91%

    21 November, Thursday

    Time Temperature Precipitation Wind Pressure Humidity
    00:00 +25°C° 0.2 mm 2 mps 758 mmHg 91%
    01:00 +25°C° 0.2 mm 2 mps 757 mmHg 92%
    02:00 +25°C° 0 mm 2 mps 757 mmHg 92%
    03:00 +24°C° 0 mm 2 mps 757 mmHg 92%
    04:00 +24°C° 0 mm 2 mps 757 mmHg 93%
    05:00 +25°C° 0 mm 2 mps 758 mmHg 92%
    06:00 +25°C° 0 mm 2 mps 758 mmHg 91%
    07:00 +26°C° 0 mm 2 mps 759 mmHg 90%
    08:00 +27°C° 0 mm 3 mps 759 mmHg 83%
    09:00 +29°C° 0 mm 3 mps 759 mmHg 76%
    10:00 +31°C° 0 mm 3 mps 759 mmHg 69%
    11:00 +31°C° 0.3 mm 3 mps 758 mmHg 68%
    12:00 +31°C° 0.3 mm 3 mps 758 mmHg 68%
    13:00 +33°C° 0.3 mm 3 mps 757 mmHg 68%
    14:00 +31°C° 1 mm 3 mps 757 mmHg 72%
    15:00 +30°C° 1 mm 3 mps 757 mmHg 77%
    16:00 +29°C° 1 mm 3 mps 756 mmHg 81%
    17:00 +28°C° 0.7 mm 3 mps 757 mmHg 83%
    18:00 +27°C° 0.7 mm 3 mps 757 mmHg 86%
    19:00 +26°C° 0.7 mm 3 mps 757 mmHg 89%
    20:00 +25°C° 0.2 mm 3 mps 758 mmHg 90%
    21:00 +25°C° 0.2 mm 3 mps 758 mmHg 91%
    22:00 +25°C° 0.2 mm 3 mps 758 mmHg 92%
    23:00 +25°C° 0.1 mm 3 mps 758 mmHg 93%

    22 November, Friday

    Time Temperature Precipitation Wind Pressure Humidity
    00:00 +25°C° 0.1 mm 3 mps 757 mmHg 93%
    01:00 +25°C° 0.1 mm 3 mps 757 mmHg 94%
    02:00 +24°C° 0 mm 3 mps 757 mmHg 93%
    03:00 +24°C° 0 mm 3 mps 757 mmHg 93%
    04:00 +24°C° 0 mm 3 mps 757 mmHg 93%
    05:00 +25°C° 0 mm 3 mps 757 mmHg 92%
    06:00 +25°C° 0 mm 4 mps 757 mmHg 91%
    07:00 +25°C° 0 mm 4 mps 758 mmHg 90%
    08:00 +27°C° 0 mm 4 mps 758 mmHg 83%
    09:00 +28°C° 0 mm 4 mps 758 mmHg 76%
    10:00 +30°C° 0 mm 4 mps 758 mmHg 69%
    11:00 +30°C° 0.2 mm 3 mps 758 mmHg 68%
    12:00 +31°C° 0.2 mm 3 mps 757 mmHg 67%
    13:00 +31°C° 0.2 mm 3 mps 756 mmHg 66%
    14:00 +30°C° 0.4 mm 3 mps 756 mmHg 71%
    15:00 +30°C° 0.4 mm 3 mps 756 mmHg 76%
    16:00 +29°C° 0.4 mm 3 mps 756 mmHg 81%
    17:00 +28°C° 0.1 mm 3 mps 756 mmHg 84%
    18:00 +27°C° 0.1 mm 3 mps 756 mmHg 88%
    19:00 +25°C° 0.1 mm 3 mps 757 mmHg 91%
    20:00 +25°C° 0 mm 3 mps 757 mmHg 92%
    21:00 +25°C° 0 mm 3 mps 757 mmHg 92%
    22:00 +25°C° 0 mm 3 mps 757 mmHg 93%
    23:00 +25°C° 0 mm 3 mps 757 mmHg 93%
    Show more